[[{"header":{"parameterUnit":"m.s-1","parameterCategory":1,"la1":30.2991,"la2":30.254,"lo1":-89.0895,"lo2":-89.0444,"dy":0.0017,"dx":0.0017,"nx":28,"ny":28,"refTime":"2024-08-18T09:00:00:Z","depth":0,"parameterNumber":2,"parameterNumberName":"U-component_of_WINDS"},"data":[0,0,0,0,0,0,0,0,0,0,0,0,0,0,0,0,0,0,0,0,0,0,0,0,0,0,0,0,0,0,0,0,0,0,0,0,0,0,0,0,0,0,0,0,0,0,0,0,0,0,0,0,0,0,0,0,0,0,2.4526,2.4527,0,2.4597,2.4597,2.4598,2.4564,2.4562,2.456,2.4558,2.4635,2.4639,2.4643,0,0,0,0,0,0,0,0,0,0,0,0,0,2.4368,2.4371,2.4526,2.4527,2.4528,2.4597,2.4597,2.4598,2.4564,2.4562,2.456,2.4558,2.4634,2.4639,2.4643,0,0,0,0,0,0,0,0,0,0,0,0,0,2.4438,2.4372,2.4526,2.4519,2.4519,2.4596,2.4598,2.4599,2.4565,2.4562,2.4559,2.4557,2.4633,2.4638,2.4644,2.4734,0,0,2.4661,2.4663,0,0,0,0,0,0,0,0,2.4434,2.4443,2.4519,2.4519,2.452,2.4568,2.457,2.4644,2.4565,2.4547,2.4558,2.4555,2.4616,2.4623,2.4642,2.4737,2.474,2.4661,2.4665,2.4667,2.4669,0,0,0,0,0,0,0,2.4429,2.444,2.4554,2.452,2.4521,2.4514,2.4521,2.4584,2.4596,2.4549,2.4546,2.4555,2.4615,2.4637,2.4644,2.4742,2.4661,2.4666,2.467,2.4672,2.4919,2.4922,0,0,0,0,0,0,2.4424,2.4436,2.4552,2.4556,2.4469,2.4519,2.4527,2.4556,2.4595,2.4599,2.4557,2.4553,2.4628,2.4637,2.4646,2.4757,2.4667,2.4673,2.4676,2.4915,2.4919,2.4923,0,0,0,0,0,0,2.442,2.4434,2.4549,2.4496,2.451,2.4525,2.4558,2.4559,2.458,2.4602,2.4604,2.4576,2.4627,2.4638,2.4713,2.4759,2.4675,2.468,2.4912,2.4917,2.4921,2.4977,0,0,0,0,0,0,2.4416,2.4433,2.4466,2.4497,2.4513,2.4613,2.456,2.4562,2.4589,2.4584,2.462,2.4624,2.4625,2.4705,2.4718,2.4765,2.4685,2.4908,2.4914,2.4919,2.4971,2.4983,2.4993,0,0,0,0,0,2.441,2.4479,2.4468,2.4482,2.4554,2.4615,2.4625,2.4624,2.4593,2.4627,2.4642,2.4623,2.4751,2.4712,2.4728,2.4777,2.4905,2.4912,2.4919,2.4966,2.4981,2.4993,0,0,0,0,0,0,2.4454,2.4483,2.447,2.4551,2.4581,2.4609,2.4652,2.4639,2.4679,2.4673,2.4672,2.468,2.4758,2.4775,2.4731,2.4868,2.4824,2.4834,2.4854,2.4868,2.4879,2.4875,2.4689,0,0,0,0,0,2.4473,2.4518,2.4542,2.4611,2.4626,2.4637,2.4663,2.466,2.4692,2.4705,2.4725,2.4758,2.4806,2.4838,2.4883,2.4973,2.4983,2.5015,2.5026,2.5035,2.5045,2.5097,2.5113,2.4946,2.4946,2.4946,0,0,2.4512,2.4534,2.4563,2.462,2.4643,2.4693,2.4648,2.4702,2.474,2.4713,2.4785,2.4802,2.4839,2.4922,2.496,2.4939,2.5093,2.5044,2.5051,2.5056,2.5106,2.5122,2.5136,2.4951,2.495,2.4949,0,0,2.461,2.463,2.4691,2.4715,2.475,2.4757,2.4772,2.4803,2.4813,2.4884,2.4867,2.4913,2.4995,2.5023,2.5048,2.516,2.5146,2.5175,2.5234,2.5285,2.5298,2.531,2.5353,2.5368,2.5184,2.5185,2.5185,0,2.4656,2.4728,2.4724,2.478,2.4808,2.4785,2.4849,2.4873,2.4922,2.4942,2.4917,2.5022,2.5045,2.5136,2.5164,2.5184,2.5203,2.5172,2.5296,2.5308,2.5319,2.536,2.5376,2.5188,2.5188,2.5187,2.5187,0,2.4784,2.4835,2.488,2.4928,2.496,2.5019,2.5027,2.506,2.5055,2.5066,2.5141,2.5168,2.522,2.5242,2.5237,2.5334,2.532,2.5295,2.5251,2.5339,2.5377,2.5393,2.5193,2.5192,2.5191,2.519,0,0,2.4911,2.4956,2.4973,2.4996,2.5034,2.5075,2.5135,2.5185,2.5216,2.525,2.5303,2.5374,2.5353,2.5381,2.538,2.5425,2.5516,2.5395,2.5396,2.5419,2.5629,2.5648,2.5666,2.5506,2.5508,2.5511,2.5627,0,2.5014,2.5118,2.5117,2.5214,2.5263,2.5244,2.5297,2.5328,2.534,2.5386,2.5399,2.5451,2.5417,2.5435,2.5478,2.5495,2.5558,2.5487,2.5558,2.556,2.5551,2.5686,2.5706,2.5814,2.5641,2.5644,2.5646,0,2.5148,2.5187,2.5289,2.5323,2.5344,2.5391,2.5439,2.5481,2.5517,2.5523,2.5556,2.5548,2.5613,2.5566,2.5656,2.5608,2.5637,2.565,2.5654,2.5663,2.561,2.5701,2.5848,2.5865,2.5669,2.5667,2.5665,0,2.5234,2.5312,2.5384,2.5404,2.5445,2.5479,2.5498,2.5531,2.5562,2.5604,2.5625,2.5674,2.5702,2.5742,2.5749,2.5713,2.5841,2.5793,2.5851,2.5851,2.588,2.5878,2.6037,2.5895,2.5894,2.5894,2.5894,0,2.535,2.5414,2.5424,2.5469,2.5541,2.5541,2.5613,2.5629,2.5659,2.5709,2.5695,2.5742,2.5747,2.5797,2.5803,2.5879,2.5891,2.59,2.5902,2.5903,2.5902,2.5923,2.5917,2.5898,2.5897,2.5897,2.5896,0,2.5459,2.5468,2.5546,2.5578,2.5588,2.564,2.5669,2.5714,2.5724,2.5788,2.5803,2.5821,2.5879,2.5889,2.5958,2.5962,2.6054,2.6046,2.6042,2.6042,2.6099,2.6095,2.6279,2.6304,2.6143,2.6145,2.6146,0,2.5534,2.5583,2.5621,2.5653,2.5673,2.5724,2.5756,2.5759,2.5793,2.5839,2.5879,2.5935,2.598,2.6074,2.6095,2.6148,2.6144,2.6205,2.6152,2.6153,2.6148,2.6146,2.6153,2.6215,2.6217,2.6219,2.622,0,2.5667,2.567,2.5715,2.5764,2.5802,2.584,2.5877,2.5904,2.5912,2.5952,2.601,2.6046,2.6116,2.6173,2.6227,2.6249,2.6238,2.6236,2.6253,2.6256,2.6252,2.6258,2.6072,2.6232,2.6231,2.623,2.6229,2.6229,2.5763,2.5807,2.5841,2.5894,2.5922,2.5957,2.6001,2.6017,2.6066,2.6123,2.6122,2.6187,2.6225,2.6295,2.6321,2.6374,2.6355,2.6378,2.6385,2.6391,2.6398,2.6242,2.6384,2.6383,2.6383,2.6383,2.6382,0,2.5898,2.592,2.5968,2.6019,2.6062,2.6045,2.6085,2.6123,2.618,2.6215,2.626,2.633,2.6386,2.6412,2.6468,2.6506,2.6502,2.6521,2.6519,2.6525,2.641,2.6392,2.6523,2.6523,2.6523,2.6523,2.6523,2.6523,2.5973,2.6048,2.6055,2.6144,2.6165,2.6228,2.6253,2.6287,2.6316,2.6393,2.644,2.6456,2.6489,2.6547,2.66,2.6606,2.6629,2.6651,2.6655,2.6547,2.6533,2.6519,2.6502,2.6655,2.6655,2.6766,2.6767,2.6768]},{"header":{"parameterUnit":"m.s-1","parameterCategory":1,"la1":30.2991,"la2":30.254,"lo1":-89.0895,"lo2":-89.0444,"dy":0.0017,"dx":0.0017,"nx":28,"ny":28,"refTime":"2024-08-18T09:00:00:Z","depth":0,"parameterNumber":3,"parameterNumberName":"V-component_of_WINDS"},"data":[0,0,0,0,0,0,0,0,0,0,0,0,0,0,0,0,0,0,0,0,0,0,0,0,0,0,0,0,0,0,0,0,0,0,0,0,0,0,0,0,0,0,0,0,0,0,0,0,0,0,0,0,0,0,0,0,0,0,-0.355,-0.355,0,-0.3509,-0.3508,-0.3508,-0.3509,-0.3509,-0.351,-0.351,-0.3467,-0.3466,-0.3464,0,0,0,0,0,0,0,0,0,0,0,0,0,-0.3632,-0.3631,-0.3551,-0.355,-0.3549,-0.3509,-0.3508,-0.3508,-0.3508,-0.3509,-0.351,-0.351,-0.3468,-0.3466,-0.3464,0,0,0,0,0,0,0,0,0,0,0,0,0,-0.3594,-0.363,-0.3551,-0.3545,-0.3544,-0.3509,-0.3508,-0.3508,-0.3508,-0.3509,-0.351,-0.3511,-0.3468,-0.3466,-0.3463,-0.3431,0,0,-0.3456,-0.3455,0,0,0,0,0,0,0,0,-0.3596,-0.3591,-0.3546,-0.3545,-0.3544,-0.3515,-0.3521,-0.3482,-0.3508,-0.3522,-0.351,-0.3511,-0.3482,-0.3479,-0.3469,-0.3429,-0.3427,-0.3456,-0.3454,-0.3453,-0.3452,0,0,0,0,0,0,0,-0.3599,-0.3593,-0.3534,-0.3546,-0.3544,-0.3545,-0.3541,-0.3514,-0.3498,-0.3521,-0.3521,-0.3516,-0.3482,-0.3471,-0.3468,-0.3427,-0.3456,-0.3453,-0.3452,-0.3451,-0.3362,-0.3362,0,0,0,0,0,0,-0.3603,-0.3595,-0.3535,-0.3533,-0.3573,-0.3543,-0.3538,-0.3523,-0.3498,-0.3495,-0.3515,-0.3516,-0.3475,-0.3471,-0.3467,-0.343,-0.3453,-0.3451,-0.3449,-0.3363,-0.3362,-0.3361,0,0,0,0,0,0,-0.3604,-0.3597,-0.3537,-0.3564,-0.3556,-0.3541,-0.3524,-0.3522,-0.3512,-0.3494,-0.3491,-0.3507,-0.3476,-0.347,-0.3441,-0.3428,-0.345,-0.3447,-0.3364,-0.3363,-0.3362,-0.3354,0,0,0,0,0,0,-0.3607,-0.3598,-0.3585,-0.3564,-0.3555,-0.3511,-0.3523,-0.3521,-0.3507,-0.3508,-0.3486,-0.3483,-0.3476,-0.3445,-0.3438,-0.3425,-0.3445,-0.3365,-0.3364,-0.3362,-0.3355,-0.3353,-0.335,0,0,0,0,0,-0.361,-0.3583,-0.3584,-0.3577,-0.3538,-0.3511,-0.3506,-0.3498,-0.3506,-0.3494,-0.3483,-0.3484,-0.343,-0.3442,-0.3435,-0.342,-0.3366,-0.3364,-0.3362,-0.3356,-0.3353,-0.335,0,0,0,0,0,0,-0.3602,-0.358,-0.3581,-0.3547,-0.3531,-0.3511,-0.3494,-0.3494,-0.3475,-0.3477,-0.3468,-0.3463,-0.3435,-0.3425,-0.3437,-0.339,-0.3399,-0.3396,-0.3397,-0.3394,-0.3392,-0.3395,-0.3443,0,0,0,0,0,-0.3597,-0.3576,-0.3558,-0.353,-0.3522,-0.351,-0.3497,-0.3494,-0.3476,-0.3469,-0.3456,-0.3439,-0.3419,-0.3406,-0.3386,-0.3354,-0.335,-0.3341,-0.3338,-0.3336,-0.3334,-0.3319,-0.3315,-0.3355,-0.3355,-0.3355,0,0,-0.3585,-0.3571,-0.3558,-0.3528,-0.3515,-0.3495,-0.3504,-0.3481,-0.3466,-0.3466,-0.3438,-0.3428,-0.3409,-0.3379,-0.3365,-0.337,-0.3322,-0.3334,-0.3332,-0.3331,-0.3316,-0.3313,-0.3309,-0.3354,-0.3354,-0.3354,0,0,-0.3554,-0.354,-0.3516,-0.3504,-0.3485,-0.3477,-0.3472,-0.3452,-0.3446,-0.3418,-0.3419,-0.3401,-0.3366,-0.3353,-0.3342,-0.331,-0.3311,-0.3304,-0.329,-0.3276,-0.3273,-0.327,-0.326,-0.3257,-0.3301,-0.3301,-0.3301,0,-0.3541,-0.351,-0.3504,-0.3482,-0.347,-0.347,-0.3447,-0.3435,-0.3411,-0.3403,-0.3408,-0.3366,-0.3353,-0.3322,-0.3314,-0.3305,-0.3299,-0.3306,-0.3274,-0.3271,-0.3268,-0.3259,-0.3255,-0.33,-0.33,-0.33,-0.33,0,-0.3498,-0.3476,-0.346,-0.3438,-0.3424,-0.3401,-0.3393,-0.3379,-0.3378,-0.337,-0.3343,-0.3328,-0.3307,-0.3299,-0.3296,-0.3268,-0.3272,-0.3275,-0.3285,-0.3264,-0.3255,-0.3251,-0.3299,-0.33,-0.33,-0.33,0,0,-0.3458,-0.3435,-0.3429,-0.3421,-0.3401,-0.3385,-0.3364,-0.3344,-0.3334,-0.3317,-0.33,-0.3272,-0.3276,-0.3264,-0.326,-0.3247,-0.3226,-0.3253,-0.3253,-0.325,-0.3196,-0.3194,-0.319,-0.3226,-0.3225,-0.3225,-0.3199,0,-0.3426,-0.3389,-0.3384,-0.3351,-0.3333,-0.3334,-0.3316,-0.3303,-0.3296,-0.328,-0.3272,-0.3253,-0.3259,-0.3252,-0.324,-0.3231,-0.3215,-0.3233,-0.3211,-0.3211,-0.3217,-0.3185,-0.3182,-0.3158,-0.3195,-0.3194,-0.3194,0,-0.3383,-0.3367,-0.3333,-0.3319,-0.3311,-0.3295,-0.3278,-0.3262,-0.3248,-0.3244,-0.3232,-0.323,-0.321,-0.3221,-0.3194,-0.3206,-0.3197,-0.3192,-0.3191,-0.3189,-0.3201,-0.3184,-0.315,-0.3147,-0.3188,-0.3188,-0.3189,0,-0.3361,-0.3331,-0.3307,-0.3299,-0.3282,-0.3271,-0.3263,-0.3249,-0.3239,-0.3224,-0.3217,-0.32,-0.3191,-0.3178,-0.3173,-0.3181,-0.3147,-0.3156,-0.3144,-0.3144,-0.3136,-0.3137,-0.3102,-0.3129,-0.3129,-0.3129,-0.3129,0,-0.3326,-0.3305,-0.3297,-0.3283,-0.3261,-0.3256,-0.3234,-0.3227,-0.3216,-0.3201,-0.32,-0.3186,-0.318,-0.3165,-0.3161,-0.314,-0.3135,-0.3133,-0.3132,-0.3133,-0.3134,-0.3128,-0.313,-0.3128,-0.3129,-0.3129,-0.3129,0,-0.3296,-0.329,-0.3265,-0.3251,-0.3248,-0.3232,-0.3221,-0.3208,-0.3202,-0.3183,-0.3178,-0.3169,-0.3152,-0.3146,-0.3125,-0.3122,-0.3099,-0.3099,-0.3104,-0.3104,-0.3092,-0.3094,-0.3052,-0.3048,-0.3077,-0.3077,-0.3077,0,-0.3275,-0.326,-0.3245,-0.3236,-0.3228,-0.3212,-0.3202,-0.3198,-0.3187,-0.3172,-0.3161,-0.3144,-0.3131,-0.3104,-0.3096,-0.308,-0.3081,-0.3067,-0.3078,-0.3081,-0.3082,-0.3084,-0.3083,-0.3065,-0.3065,-0.3065,-0.3064,0,-0.3238,-0.3237,-0.3222,-0.3208,-0.3196,-0.3184,-0.3172,-0.3164,-0.3158,-0.3147,-0.313,-0.312,-0.31,-0.3084,-0.3069,-0.3061,-0.3062,-0.3061,-0.3058,-0.3059,-0.3064,-0.3063,-0.31,-0.3062,-0.3062,-0.3063,-0.3063,-0.3063,-0.3213,-0.3201,-0.319,-0.3174,-0.3166,-0.3155,-0.3143,-0.3137,-0.3123,-0.3107,-0.3105,-0.3088,-0.3077,-0.3057,-0.3049,-0.3036,-0.304,-0.3034,-0.3033,-0.3032,-0.3032,-0.3065,-0.3033,-0.3033,-0.3033,-0.3033,-0.3033,0,-0.3178,-0.3172,-0.3158,-0.3143,-0.3131,-0.3134,-0.3122,-0.3112,-0.3097,-0.3087,-0.3075,-0.3057,-0.3042,-0.3034,-0.302,-0.3011,-0.3011,-0.3007,-0.3008,-0.3007,-0.3029,-0.3034,-0.3008,-0.3008,-0.3008,-0.3008,-0.3008,-0.3008,-0.3159,-0.3139,-0.3136,-0.3113,-0.3106,-0.309,-0.3083,-0.3074,-0.3067,-0.3047,-0.3035,-0.303,-0.3021,-0.3007,-0.2994,-0.2992,-0.2988,-0.2984,-0.2982,-0.3003,-0.3005,-0.3008,-0.3013,-0.2982,-0.2982,-0.2962,-0.2962,-0.2962]}]]